Date String (YYYY-MM-DD hh:mm:ss) UTC,Instrument flags,Ambient pressure (hPa),Sample flow (lpm),Bypass flow (lpm),Sample temperature (°C),Ambient temperature (°C),ASC tube jacket temperature (°C),LED temperature (°C),Box temperature (°C),Sample RH (%),Span deviation,Mass concentration (μg/m³),Mass concentration (μg/m³),Mass concentration (μg/m³)
DateTimeUTC,F1_M11,P_M11,Q1_M11,Q2_M11,T1_M11,T2_M11,T3_M11,T4_M11,T5_M11,U1_M11,ZSPAN_M11,X0_M11,X2_M11,X1_M11
2022-12-29 11:00:00,,0814.7,4.98,0.00,21.1,21.9,00.0,29.9,23.1,18.8,0000.0,0003.26,0003.39,0003.36
2022-12-29 11:01:00,,0814.9,5.01,0.00,21.2,22.0,00.0,29.9,23.1,18.6,0000.0,0003.26,0003.39,0003.35
2022-12-29 11:02:00,,0815.1,5.02,0.00,21.2,21.1,00.0,30.0,22.9,18.6,0000.0,0003.27,0003.39,0003.35
2022-12-29 11:03:00,,0815.1,5.00,0.00,21.2,20.4,00.0,30.0,22.7,18.6,0000.0,0003.24,0003.38,0003.34
2022-12-29 11:04:00,,0815.2,4.95,0.00,21.1,19.7,00.0,30.1,22.5,18.7,0000.0,0003.26,0003.38,0003.34
2022-12-29 11:05:00,,0815.0,5.05,0.00,21.0,19.2,00.0,30.0,22.4,18.8,0000.0,0003.25,0003.37,0003.32
2022-12-29 11:06:00,,0814.7,5.02,0.00,20.9,18.8,00.0,30.0,22.2,18.9,0000.0,0003.26,0003.37,0003.32
2022-12-29 11:07:00,,0814.8,4.98,0.00,20.8,18.5,00.0,30.0,22.1,19.0,0000.0,0003.22,0003.36,0003.31
2022-12-29 11:08:00,,0814.7,5.00,0.00,20.7,18.3,00.0,30.0,21.9,19.1,0000.0,0003.19,0003.34,0003.30
2022-12-29 11:09:00,,0814.7,4.97,0.00,20.7,18.2,00.0,29.9,21.9,19.2,0000.0,0003.20,0003.34,0003.30
2022-12-29 11:10:00,,0814.7,4.98,0.00,20.7,19.6,00.0,29.8,22.2,19.2,0000.0,0003.13,0003.32,0003.28
2022-12-29 11:11:00,,0814.7,5.01,0.00,20.9,20.9,00.0,29.8,22.6,19.1,0000.0,0003.15,0003.32,0003.28
2022-12-29 11:12:00,,0814.7,5.03,0.00,21.0,21.9,00.0,29.8,23.0,18.9,0000.0,0003.13,0003.32,0003.28
2022-12-29 11:13:00,,0814.9,4.99,0.00,21.1,21.5,00.0,29.9,22.9,18.8,0000.0,0003.10,0003.30,0003.26
2022-12-29 11:14:00,,0814.6,4.95,0.00,21.0,20.5,00.0,29.9,22.6,18.8,0000.0,0003.07,0003.27,0003.22
2022-12-29 11:15:00,,0814.7,5.00,0.00,20.9,19.6,00.0,29.9,22.4,18.9,0000.0,0002.99,0003.24,0003.20
2022-12-29 11:16:00,,0814.8,5.01,0.00,20.8,19.1,00.0,29.9,22.2,19.0,0000.0,0002.94,0003.21,0003.17
2022-12-29 11:17:00,,0814.9,5.03,0.00,20.8,18.6,00.0,29.9,22.1,19.1,0000.0,0002.88,0003.18,0003.14
2022-12-29 11:18:00,,0814.9,4.99,0.00,20.7,18.2,00.0,29.8,21.9,19.2,0000.0,0002.90,0003.17,0003.12
2022-12-29 11:19:00,,0815.0,4.97,0.00,20.6,18.1,00.0,29.8,21.8,19.3,0000.0,0002.88,0003.15,0003.09
2022-12-29 11:20:00,,0815.1,5.03,0.00,20.6,19.4,00.0,29.7,22.1,19.3,0000.0,0002.82,0003.12,0003.04
2022-12-29 11:21:00,,0815.1,5.02,0.00,20.8,20.9,00.0,29.7,22.6,19.2,0000.0,0002.77,0003.08,0003.00
2022-12-29 11:22:00,,0815.1,4.99,0.00,20.9,21.9,00.0,29.7,22.9,19.0,0000.0,0002.69,0003.02,0002.95
2022-12-29 11:23:00,,0815.0,4.96,0.00,21.1,21.7,00.0,29.8,22.9,18.8,0000.0,0002.64,0002.96,0002.90
2022-12-29 11:24:00,,0815.1,5.01,0.00,21.0,20.6,00.0,29.8,22.6,18.8,0000.0,0002.58,0002.92,0002.86
2022-12-29 11:25:00,,0814.9,5.03,0.00,20.9,19.8,00.0,29.9,22.3,18.9,0000.0,0002.59,0002.90,0002.83
2022-12-29 11:26:00,,0814.6,5.00,0.00,20.8,19.2,00.0,29.9,22.2,19.0,0000.0,0002.66,0002.87,0002.80
2022-12-29 11:27:00,,0815.0,4.99,0.00,20.8,18.9,00.0,29.9,22.1,19.1,0000.0,0002.65,0002.84,0002.77
2022-12-29 11:28:00,,0815.0,4.97,0.00,20.7,18.6,00.0,29.8,22.0,19.1,0000.0,0002.66,0002.82,0002.75
2022-12-29 11:29:00,,0814.7,5.06,0.00,20.6,18.4,00.0,29.8,21.9,19.2,0000.0,0002.70,0002.82,0002.73
2022-12-29 11:30:00,,0814.9,5.01,0.00,20.6,18.3,00.0,29.8,21.8,19.2,0000.0,0002.68,0002.79,0002.71
2022-12-29 11:31:00,,0815.1,5.01,0.00,20.5,18.4,00.0,29.7,21.8,19.3,0000.0,0002.65,0002.76,0002.69
2022-12-29 11:32:00,,0815.0,4.97,0.00,20.6,20.0,00.0,29.6,22.2,19.2,0000.0,0002.63,0002.74,0002.68
2022-12-29 11:33:00,,0815.0,4.98,0.00,20.8,21.2,00.0,29.6,22.6,19.0,0000.0,0002.61,0002.71,0002.65
2022-12-29 11:34:00,,0815.1,5.03,0.00,20.9,22.1,00.0,29.7,22.9,18.8,0000.0,0002.62,0002.71,0002.64
2022-12-29 11:35:00,,0814.9,4.98,0.00,21.0,21.5,00.0,29.7,22.9,18.7,0000.0,0002.64,0002.69,0002.62
2022-12-29 11:36:00,,0814.9,4.96,0.00,21.0,20.7,00.0,29.8,22.6,18.7,0000.0,0002.58,0002.66,0002.60
2022-12-29 11:37:00,,0814.8,4.98,0.00,20.9,20.0,00.0,29.8,22.4,18.8,0000.0,0002.52,0002.66,0002.59
2022-12-29 11:38:00,,0814.8,4.99,0.00,20.9,19.4,00.0,29.8,22.3,18.8,0000.0,0002.53,0002.65,0002.56
2022-12-29 11:39:00,,0815.0,5.03,0.00,20.8,18.9,00.0,29.8,22.1,18.9,0000.0,0002.54,0002.64,0002.55
2022-12-29 11:40:00,,0814.7,5.00,0.00,20.7,18.6,00.0,29.8,22.0,18.9,0000.0,0002.49,0002.61,0002.53
2022-12-29 11:41:00,,0814.9,5.01,0.00,20.6,18.3,00.0,29.8,21.9,19.0,0000.0,0002.53,0002.62,0002.51
2022-12-29 11:42:00,,0814.8,4.98,0.00,20.5,18.2,00.0,29.7,21.8,19.1,0000.0,0002.57,0002.61,0002.48
2022-12-29 11:43:00,,0814.6,5.00,0.00,20.6,19.6,00.0,29.7,22.1,19.0,0000.0,0002.56,0002.58,0002.44
2022-12-29 11:44:00,,0814.6,5.03,0.00,20.7,21.1,00.0,29.6,22.5,18.9,0000.0,0002.62,0002.56,0002.40
2022-12-29 11:45:00,,0814.7,4.98,0.00,20.9,21.8,00.0,29.7,22.8,18.7,0000.0,0002.62,0002.52,0002.35
2022-12-29 11:46:00,,0814.9,4.99,0.00,21.0,21.1,00.0,29.7,22.7,18.6,0000.0,0002.57,0002.47,0002.30
2022-12-29 11:47:00,,0815.1,5.03,0.00,20.9,20.4,00.0,29.8,22.6,18.5,0000.0,0002.55,0002.41,0002.25
2022-12-29 11:48:00,,0815.2,5.02,0.00,20.9,19.8,00.0,29.8,22.4,18.6,0000.0,0002.53,0002.37,0002.20
2022-12-29 11:49:00,,0815.0,4.98,0.00,20.8,19.4,00.0,29.8,22.2,18.6,0000.0,0002.62,0002.35,0002.16
2022-12-29 11:50:00,,0815.1,4.99,0.00,20.8,18.9,00.0,29.8,22.1,18.6,0000.0,0002.69,0002.29,0002.10
2022-12-29 11:51:00,,0815.1,5.05,0.00,20.7,18.7,00.0,29.8,22.0,18.7,0000.0,0002.66,0002.24,0002.04
2022-12-29 11:52:00,,0815.2,4.99,0.00,20.6,18.4,00.0,29.7,21.9,18.7,0000.0,0002.55,0002.14,0001.97
2022-12-29 11:53:00,,0815.1,4.97,0.00,20.6,18.2,00.0,29.7,21.8,18.7,0000.0,0002.49,0002.07,0001.91
2022-12-29 11:54:00,,0815.1,4.98,0.00,20.5,18.4,00.0,29.7,21.8,18.8,0000.0,0002.45,0002.01,0001.85
2022-12-29 11:55:00,,0814.9,5.04,0.00,20.6,20.0,00.0,29.6,22.2,18.7,0000.0,0002.44,0001.97,0001.81
2022-12-29 11:56:00,,0815.0,5.03,0.00,20.8,21.4,00.0,29.6,22.6,18.5,0000.0,0002.43,0001.94,0001.78
2022-12-29 11:57:00,,0815.0,4.95,0.00,20.9,22.2,00.0,29.6,22.9,18.3,0000.0,0002.43,0001.94,0001.77
2022-12-29 11:58:00,,0815.1,5.02,0.00,21.0,21.8,00.0,29.7,23.0,18.2,0000.0,0002.46,0001.95,0001.76
2022-12-29 11:59:00,,0815.1,5.00,0.00,21.0,21.0,00.0,29.8,22.8,18.1,0000.0,0002.42,0001.92,0001.74
